^^
Saratoga-Weather Station Historical Data
Daily Summary for February 16, 2021 Units:  Both    English   Metric
Daily Weekly Monthly Yearly Custom
  High: Low: Average:
Temperature: 55.8 °F /  13.2 °C 42.6 °F /  5.9 °C 48.4 °F /  9.1 °C
Dew Point: 50.2 °F /  10.1 °C 41.5 °F /  5.3 °C 45.7 °F /  7.6 °C
Humidity: 97% 75% 91%
Wind Speed: 4.9mph /  7.9km/h - 0.5mph /  0.8km/h
Wind Gust: 7mph /  11.3km/h - -
Wind- - SSW
Pressure: 30.2 in /  1021.7 hPa 30.1 in /  1019.3 hPa -
Precipitation: 0 in /  0.0 mm    
Historical Graphs
 
 
Tabular Data for February 16, 2021
Time Temperature Dew Point Pressure Wind Wind Speed Wind Gust Humidity Rainfall Rate (Hourly) solar
00:02 51.8 °F /  11 °C 48.7 °F /  9.3 °C 30.1in /  1020.3hPa Calm   3mph /  4.8km/h 89% 0in /  0.0mm 0 W/m2
00:07 51.4 °F /  10.8 °C 48.4 °F /  9.1 °C 30.1in /  1020.3hPa Calm   1mph /  1.6km/h 89% 0in /  0.0mm 0 W/m2
00:12 51.4 °F /  10.8 °C 48.6 °F /  9.2 °C 30.1in /  1020.7hPa Calm   3mph /  4.8km/h 90% 0in /  0.0mm 0 W/m2
00:17 51.3 °F /  10.7 °C 48.4 °F /  9.1 °C 30.1in /  1020.7hPa ESE 0.9mph /  1.4km/h 2mph /  3.2km/h 90% 0in /  0.0mm 0 W/m2
00:22 51.3 °F /  10.7 °C 48.4 °F /  9.1 °C 30.1in /  1020.7hPa Calm     90% 0in /  0.0mm 0 W/m2
00:27 51.3 °F /  10.7 °C 48.4 °F /  9.1 °C 30.1in /  1020.3hPa Calm   1mph /  1.6km/h 90% 0in /  0.0mm 0 W/m2
00:32 51.1 °F /  10.6 °C 48.2 °F /  9 °C 30.1in /  1020.3hPa Calm   1mph /  1.6km/h 90% 0in /  0.0mm 0 W/m2
00:37 50.9 °F /  10.5 °C 48 °F /  8.9 °C 30.1in /  1020.3hPa Calm   2mph /  3.2km/h 90% 0in /  0.0mm 0 W/m2
00:42 50.7 °F /  10.4 °C 48.2 °F /  9 °C 30.1in /  1020.7hPa Calm   1mph /  1.6km/h 91% 0in /  0.0mm 0 W/m2
00:47 50.7 °F /  10.4 °C 48.2 °F /  9 °C 30.1in /  1020.7hPa Calm   2mph /  3.2km/h 91% 0in /  0.0mm 0 W/m2
00:52 50.5 °F /  10.3 °C 48 °F /  8.9 °C 30.1in /  1020.3hPa NNW 0.9mph /  1.4km/h 2mph /  3.2km/h 91% 0in /  0.0mm 0 W/m2
00:57 50.5 °F /  10.3 °C 48 °F /  8.9 °C 30.1in /  1020.3hPa Calm   2mph /  3.2km/h 91% 0in /  0.0mm 0 W/m2
01:02 50.5 °F /  10.3 °C 48 °F /  8.9 °C 30.1in /  1020.7hPa NE 0.9mph /  1.4km/h 1mph /  1.6km/h 91% 0in /  0.0mm 0 W/m2
01:07 50.4 °F /  10.2 °C 47.8 °F /  8.8 °C 30.1in /  1020.7hPa NE 0.9mph /  1.4km/h 2mph /  3.2km/h 91% 0in /  0.0mm 0 W/m2
01:12 50 °F /  10 °C 47.5 °F /  8.6 °C 30.1in /  1020.3hPa Calm   1mph /  1.6km/h 91% 0in /  0.0mm 0 W/m2
01:17 49.8 °F /  9.9 °C 47.7 °F /  8.7 °C 30.1in /  1020.3hPa East 2mph /  3.2km/h 3mph /  4.8km/h 92% 0in /  0.0mm 0 W/m2
01:22 49.8 °F /  9.9 °C 47.7 °F /  8.7 °C 30.1in /  1020.3hPa Calm   1mph /  1.6km/h 92% 0in /  0.0mm 0 W/m2
01:27 49.6 °F /  9.8 °C 47.5 °F /  8.6 °C 30.1in /  1020.3hPa Calm   2mph /  3.2km/h 92% 0in /  0.0mm 0 W/m2
01:32 49.6 °F /  9.8 °C 47.5 °F /  8.6 °C 30.1in /  1020.3hPa Calm   2mph /  3.2km/h 92% 0in /  0.0mm 0 W/m2
01:37 49.6 °F /  9.8 °C 47.5 °F /  8.6 °C 30.1in /  1020.3hPa Calm   2mph /  3.2km/h 92% 0in /  0.0mm 0 W/m2
01:42 49.5 °F /  9.7 °C 47.3 °F /  8.5 °C 30.1in /  1020.3hPa SSW 0.9mph /  1.4km/h 1mph /  1.6km/h 92% 0in /  0.0mm 0 W/m2
01:47 49.5 °F /  9.7 °C 47.3 °F /  8.5 °C 30.1in /  1020.3hPa Calm   1mph /  1.6km/h 92% 0in /  0.0mm 0 W/m2
01:52 49.1 °F /  9.5 °C 46.9 °F /  8.3 °C 30.1in /  1020.7hPa Calm     92% 0in /  0.0mm 0 W/m2
01:57 48.7 °F /  9.3 °C 46.6 °F /  8.1 °C 30.1in /  1020.7hPa Calm     92% 0in /  0.0mm 0 W/m2
02:02 48.6 °F /  9.2 °C 46.6 °F /  8.1 °C 30.1in /  1020.7hPa NW 2mph /  3.2km/h 2mph /  3.2km/h 93% 0in /  0.0mm 0 W/m2
02:07 48.6 °F /  9.2 °C 46.6 °F /  8.1 °C 30.1in /  1020.7hPa WNW 0.9mph /  1.4km/h 1mph /  1.6km/h 93% 0in /  0.0mm 0 W/m2
02:12 48.6 °F /  9.2 °C 46.6 °F /  8.1 °C 30.1in /  1020.7hPa NW 0.9mph /  1.4km/h 3mph /  4.8km/h 93% 0in /  0.0mm 0 W/m2
02:17 48.6 °F /  9.2 °C 46.6 °F /  8.1 °C 30.1in /  1020.7hPa NE 0.9mph /  1.4km/h 2mph /  3.2km/h 93% 0in /  0.0mm 0 W/m2
02:22 48.6 °F /  9.2 °C 46.9 °F /  8.3 °C 30.1in /  1020.7hPa West 2mph /  3.2km/h 2mph /  3.2km/h 94% 0in /  0.0mm 0 W/m2
02:27 48.6 °F /  9.2 °C 46.9 °F /  8.3 °C 30.1in /  1020.7hPa Calm     94% 0in /  0.0mm 0 W/m2
02:32 48.6 °F /  9.2 °C 46.9 °F /  8.3 °C 30.1in /  1020.7hPa Calm     94% 0in /  0.0mm 0 W/m2
02:37 48.4 °F /  9.1 °C 46.4 °F /  8 °C 30.1in /  1020.7hPa Calm     93% 0in /  0.0mm 0 W/m2
02:42 48 °F /  8.9 °C 46 °F /  7.8 °C 30.1in /  1020.7hPa Calm     93% 0in /  0.0mm 0 W/m2
02:47 47.7 °F /  8.7 °C 45.7 °F /  7.6 °C 30.1in /  1020.7hPa Calm   2mph /  3.2km/h 93% 0in /  0.0mm 0 W/m2
02:52 47.5 °F /  8.6 °C 45.5 °F /  7.5 °C 30.1in /  1020.7hPa East 0.9mph /  1.4km/h 2mph /  3.2km/h 93% 0in /  0.0mm 0 W/m2
02:57 47.3 °F /  8.5 °C 45.3 °F /  7.4 °C 30.1in /  1020.7hPa Calm   1mph /  1.6km/h 93% 0in /  0.0mm 0 W/m2
03:03 47.1 °F /  8.4 °C 45.5 °F /  7.5 °C 30.1in /  1020.7hPa Calm   2mph /  3.2km/h 94% 0in /  0.0mm 0 W/m2
03:08 47.1 °F /  8.4 °C 45.5 °F /  7.5 °C 30.1in /  1020.7hPa Calm     94% 0in /  0.0mm 0 W/m2
03:13 47.1 °F /  8.4 °C 45.5 °F /  7.5 °C 30.1in /  1020.7hPa Calm   2mph /  3.2km/h 94% 0in /  0.0mm 0 W/m2
03:18 47.1 °F /  8.4 °C 45.5 °F /  7.5 °C 30.1in /  1020.7hPa Calm   1mph /  1.6km/h 94% 0in /  0.0mm 0 W/m2
03:23 47.1 °F /  8.4 °C 45.5 °F /  7.5 °C 30.1in /  1020.7hPa Calm   2mph /  3.2km/h 94% 0in /  0.0mm 0 W/m2
03:28 46.9 °F /  8.3 °C 45.3 °F /  7.4 °C 30.1in /  1020.7hPa Calm     94% 0in /  0.0mm 0 W/m2
03:33 46.8 °F /  8.2 °C 45.1 °F /  7.3 °C 30.1in /  1020.7hPa Calm     94% 0in /  0.0mm 0 W/m2
03:38 46.4 °F /  8 °C 44.8 °F /  7.1 °C 30.1in /  1020.3hPa Calm     94% 0in /  0.0mm 0 W/m2
03:43 46.2 °F /  7.9 °C 44.6 °F /  7 °C 30.1in /  1020.3hPa Calm     94% 0in /  0.0mm 0 W/m2
03:48 46.2 °F /  7.9 °C 44.6 °F /  7 °C 30.1in /  1020.3hPa ENE 2mph /  3.2km/h 3mph /  4.8km/h 94% 0in /  0.0mm 0 W/m2
03:53 46.2 °F /  7.9 °C 44.8 °F /  7.1 °C 30.1in /  1020.3hPa Calm   1mph /  1.6km/h 95% 0in /  0.0mm 0 W/m2
03:58 46.2 °F /  7.9 °C 44.8 °F /  7.1 °C 30.1in /  1020.3hPa East 2mph /  3.2km/h 3mph /  4.8km/h 95% 0in /  0.0mm 0 W/m2
04:03 46.2 °F /  7.9 °C 44.8 °F /  7.1 °C 30.1in /  1020.3hPa East 0.9mph /  1.4km/h 2mph /  3.2km/h 95% 0in /  0.0mm 0 W/m2
04:08 46.2 °F /  7.9 °C 44.8 °F /  7.1 °C 30.1in /  1020.3hPa East 0.9mph /  1.4km/h 3mph /  4.8km/h 95% 0in /  0.0mm 0 W/m2
04:13 46 °F /  7.8 °C 44.6 °F /  7 °C 30.1in /  1020.3hPa East 0.9mph /  1.4km/h 1mph /  1.6km/h 95% 0in /  0.0mm 0 W/m2
04:18 45.9 °F /  7.7 °C 44.4 °F /  6.9 °C 30.1in /  1020.3hPa East 0.9mph /  1.4km/h 3mph /  4.8km/h 95% 0in /  0.0mm 0 W/m2
04:23 45.9 °F /  7.7 °C 44.4 °F /  6.9 °C 30.1in /  1020.3hPa Calm   1mph /  1.6km/h 95% 0in /  0.0mm 0 W/m2
04:28 45.7 °F /  7.6 °C 44.4 °F /  6.9 °C 30.1in /  1020.3hPa Calm     95% 0in /  0.0mm 0 W/m2
04:33 45.7 °F /  7.6 °C 44.4 °F /  6.9 °C 30.1in /  1020.3hPa Calm   1mph /  1.6km/h 95% 0in /  0.0mm 0 W/m2
04:38 45.5 °F /  7.5 °C 44.2 °F /  6.8 °C 30.1in /  1020.3hPa East 0.9mph /  1.4km/h 2mph /  3.2km/h 95% 0in /  0.0mm 0 W/m2
04:43 45.5 °F /  7.5 °C 44.2 °F /  6.8 °C 30.1in /  1020.3hPa Calm   1mph /  1.6km/h 95% 0in /  0.0mm 0 W/m2
04:48 45.5 °F /  7.5 °C 44.2 °F /  6.8 °C 30.1in /  1020.3hPa NE 0.9mph /  1.4km/h 2mph /  3.2km/h 95% 0in /  0.0mm 0 W/m2
04:53 45.3 °F /  7.4 °C 44.1 °F /  6.7 °C 30.1in /  1020.3hPa Calm   1mph /  1.6km/h 95% 0in /  0.0mm 0 W/m2
04:58 45.3 °F /  7.4 °C 44.1 °F /  6.7 °C 30.1in /  1020.3hPa ENE 0.9mph /  1.4km/h 1mph /  1.6km/h 95% 0in /  0.0mm 0 W/m2
05:03 45.3 °F /  7.4 °C 44.1 °F /  6.7 °C 30.1in /  1020.3hPa East 0.9mph /  1.4km/h 2mph /  3.2km/h 95% 0in /  0.0mm 0 W/m2
05:08 45.1 °F /  7.3 °C 43.9 °F /  6.6 °C 30.1in /  1020.3hPa Calm   1mph /  1.6km/h 95% 0in /  0.0mm 0 W/m2
05:13 45.1 °F /  7.3 °C 43.9 °F /  6.6 °C 30.1in /  1020.3hPa NE 0.9mph /  1.4km/h 2mph /  3.2km/h 95% 0in /  0.0mm 0 W/m2
05:18 45 °F /  7.2 °C 43.7 °F /  6.5 °C 30.1in /  1020.3hPa East 0.9mph /  1.4km/h 2mph /  3.2km/h 95% 0in /  0.0mm 0 W/m2
05:23 45 °F /  7.2 °C 43.7 °F /  6.5 °C 30.1in /  1020.3hPa Calm   2mph /  3.2km/h 95% 0in /  0.0mm 0 W/m2
05:28 44.8 °F /  7.1 °C 43.7 °F /  6.5 °C 30.1in /  1020.3hPa SE 2mph /  3.2km/h 3mph /  4.8km/h 96% 0in /  0.0mm 0 W/m2
05:33 44.6 °F /  7 °C 43.3 °F /  6.3 °C 30.1in /  1020.3hPa ESE 0.9mph /  1.4km/h 3mph /  4.8km/h 95% 0in /  0.0mm 0 W/m2
05:38 44.6 °F /  7 °C 43.3 °F /  6.3 °C 30.1in /  1020.3hPa SE 0.9mph /  1.4km/h 3mph /  4.8km/h 95% 0in /  0.0mm 0 W/m2
05:43 44.4 °F /  6.9 °C 43.2 °F /  6.2 °C 30.1in /  1020.3hPa Calm   3mph /  4.8km/h 95% 0in /  0.0mm 0 W/m2
05:48 44.4 °F /  6.9 °C 43.3 °F /  6.3 °C 30.1in /  1020.7hPa East 2mph /  3.2km/h 2mph /  3.2km/h 96% 0in /  0.0mm 0 W/m2
05:53 44.2 °F /  6.8 °C 43.2 °F /  6.2 °C 30.1in /  1020.7hPa East 0.9mph /  1.4km/h 3mph /  4.8km/h 96% 0in /  0.0mm 0 W/m2
05:58 44.2 °F /  6.8 °C 43.2 °F /  6.2 °C 30.1in /  1020.3hPa Calm   4mph /  6.4km/h 96% 0in /  0.0mm 0 W/m2
06:03 44.2 °F /  6.8 °C 43.2 °F /  6.2 °C 30.1in /  1020.3hPa ENE 0.9mph /  1.4km/h 3mph /  4.8km/h 96% 0in /  0.0mm 0 W/m2
06:08 44.1 °F /  6.7 °C 43 °F /  6.1 °C 30.1in /  1020.3hPa Calm   4mph /  6.4km/h 96% 0in /  0.0mm 0 W/m2
06:13 44.1 °F /  6.7 °C 43 °F /  6.1 °C 30.1in /  1020.3hPa Calm   1mph /  1.6km/h 96% 0in /  0.0mm 0 W/m2
06:18 44.1 °F /  6.7 °C 43 °F /  6.1 °C 30.1in /  1020.7hPa Calm   3mph /  4.8km/h 96% 0in /  0.0mm 0 W/m2
06:23 44.1 °F /  6.7 °C 43 °F /  6.1 °C 30.1in /  1020.3hPa East 0.9mph /  1.4km/h 2mph /  3.2km/h 96% 0in /  0.0mm 0 W/m2
06:28 44.1 °F /  6.7 °C 43 °F /  6.1 °C 30.1in /  1020.3hPa Calm   3mph /  4.8km/h 96% 0in /  0.0mm 0 W/m2
06:33 44.1 °F /  6.7 °C 43 °F /  6.1 °C 30.1in /  1020.3hPa NNW 0.9mph /  1.4km/h 2mph /  3.2km/h 96% 0in /  0.0mm 0 W/m2
06:38 44.1 °F /  6.7 °C 43 °F /  6.1 °C 30.1in /  1020.3hPa NNW 0.9mph /  1.4km/h 2mph /  3.2km/h 96% 0in /  0.0mm 0 W/m2
06:43 44.1 °F /  6.7 °C 43 °F /  6.1 °C 30.1in /  1020.3hPa North 0.9mph /  1.4km/h 3mph /  4.8km/h 96% 0in /  0.0mm 0 W/m2
06:48 43.9 °F /  6.6 °C 42.8 °F /  6 °C 30.1in /  1020.3hPa Calm   1mph /  1.6km/h 96% 0in /  0.0mm 0 W/m2
06:53 43.9 °F /  6.6 °C 42.8 °F /  6 °C 30.1in /  1020.7hPa East 2mph /  3.2km/h 3mph /  4.8km/h 96% 0in /  0.0mm 0 W/m2
06:58 43.7 °F /  6.5 °C 42.6 °F /  5.9 °C 30.1in /  1020.7hPa Calm   2mph /  3.2km/h 96% 0in /  0.0mm 0 W/m2
07:03 43.7 °F /  6.5 °C 42.6 °F /  5.9 °C 30.1in /  1020.7hPa Calm   3mph /  4.8km/h 96% 0in /  0.0mm 0 W/m2
07:08 43.5 °F /  6.4 °C 42.4 °F /  5.8 °C 30.1in /  1020.7hPa Calm   1mph /  1.6km/h 96% 0in /  0.0mm 0 W/m2
07:13 43.5 °F /  6.4 °C 42.4 °F /  5.8 °C 30.1in /  1020.7hPa Calm   1mph /  1.6km/h 96% 0in /  0.0mm 0 W/m2
07:18 43.3 °F /  6.3 °C 42.3 °F /  5.7 °C 30.1in /  1020.3hPa ENE 0.9mph /  1.4km/h 2mph /  3.2km/h 96% 0in /  0.0mm 0 W/m2
07:23 43.3 °F /  6.3 °C 42.3 °F /  5.7 °C 30.1in /  1020.7hPa ENE 0.9mph /  1.4km/h 1mph /  1.6km/h 96% 0in /  0.0mm 0 W/m2
07:28 43.3 °F /  6.3 °C 42.3 °F /  5.7 °C 30.1in /  1020.7hPa NW 0.9mph /  1.4km/h 2mph /  3.2km/h 96% 0in /  0.0mm 0 W/m2
07:33 43.3 °F /  6.3 °C 42.3 °F /  5.7 °C 30.1in /  1020.7hPa NW 2mph /  3.2km/h 2mph /  3.2km/h 96% 0in /  0.0mm 0 W/m2
07:38 43.3 °F /  6.3 °C 42.3 °F /  5.7 °C 30.1in /  1020.7hPa Calm     96% 0in /  0.0mm 0 W/m2
07:43 43.3 °F /  6.3 °C 42.3 °F /  5.7 °C 30.1in /  1020.7hPa Calm     96% 0in /  0.0mm 0 W/m2
07:48 43.3 °F /  6.3 °C 42.3 °F /  5.7 °C 30.1in /  1020.7hPa Calm     96% 0in /  0.0mm 0 W/m2
07:53 43.2 °F /  6.2 °C 42.1 °F /  5.6 °C 30.1in /  1020.7hPa ENE 2mph /  3.2km/h 2mph /  3.2km/h 96% 0in /  0.0mm 0 W/m2
07:58 43.2 °F /  6.2 °C 42.1 °F /  5.6 °C 30.1in /  1020.7hPa Calm   2mph /  3.2km/h 96% 0in /  0.0mm 0 W/m2
08:03 43.2 °F /  6.2 °C 42.1 °F /  5.6 °C 30.1in /  1020.7hPa North 2mph /  3.2km/h 3mph /  4.8km/h 96% 0in /  0.0mm 0 W/m2
08:08 43 °F /  6.1 °C 41.9 °F /  5.5 °C 30.1in /  1020.7hPa Calm   1mph /  1.6km/h 96% 0in /  0.0mm 0 W/m2
08:13 43 °F /  6.1 °C 41.9 °F /  5.5 °C 30.1in /  1020.7hPa Calm     96% 0in /  0.0mm 5 W/m2
08:18 43 °F /  6.1 °C 41.9 °F /  5.5 °C 30.1in /  1020.7hPa Calm   3mph /  4.8km/h 96% 0in /  0.0mm 5 W/m2
08:23 43 °F /  6.1 °C 41.9 °F /  5.5 °C 30.1in /  1020.7hPa Calm   3mph /  4.8km/h 96% 0in /  0.0mm 5 W/m2
08:28 43 °F /  6.1 °C 41.9 °F /  5.5 °C 30.1in /  1020.7hPa Calm   1mph /  1.6km/h 96% 0in /  0.0mm 9 W/m2
08:33 43 °F /  6.1 °C 41.9 °F /  5.5 °C 30.2in /  1021.0hPa Calm   3mph /  4.8km/h 96% 0in /  0.0mm 14 W/m2
08:38 43 °F /  6.1 °C 41.9 °F /  5.5 °C 30.2in /  1021.0hPa North 0.9mph /  1.4km/h 2mph /  3.2km/h 96% 0in /  0.0mm 18 W/m2
08:43 42.8 °F /  6 °C 41.7 °F /  5.4 °C 30.2in /  1021.0hPa Calm   2mph /  3.2km/h 96% 0in /  0.0mm 19 W/m2
08:48 43 °F /  6.1 °C 41.9 °F /  5.5 °C 30.2in /  1021.0hPa Calm   2mph /  3.2km/h 96% 0in /  0.0mm 25 W/m2
08:53 42.8 °F /  6 °C 41.7 °F /  5.4 °C 30.2in /  1021.0hPa NNW 0.9mph /  1.4km/h 1mph /  1.6km/h 96% 0in /  0.0mm 30 W/m2
08:59 42.8 °F /  6 °C 41.7 °F /  5.4 °C 30.2in /  1021.0hPa Calm   1mph /  1.6km/h 96% 0in /  0.0mm 32 W/m2
09:04 42.8 °F /  6 °C 41.7 °F /  5.4 °C 30.2in /  1021.0hPa Calm     96% 0in /  0.0mm 35 W/m2
09:09 42.8 °F /  6 °C 41.7 °F /  5.4 °C 30.2in /  1021.3hPa Calm     96% 0in /  0.0mm 39 W/m2
09:14 42.6 °F /  5.9 °C 41.5 °F /  5.3 °C 30.2in /  1021.3hPa Calm     96% 0in /  0.0mm 49 W/m2
09:19 42.8 °F /  6 °C 41.7 °F /  5.4 °C 30.2in /  1021.3hPa Calm     96% 0in /  0.0mm 60 W/m2
09:24 43 °F /  6.1 °C 42.3 °F /  5.7 °C 30.2in /  1021.3hPa Calm   2mph /  3.2km/h 97% 0in /  0.0mm 56 W/m2
09:29 43 °F /  6.1 °C 42.3 °F /  5.7 °C 30.2in /  1021.3hPa Calm   3mph /  4.8km/h 97% 0in /  0.0mm 58 W/m2
09:34 43 °F /  6.1 °C 41.9 °F /  5.5 °C 30.2in /  1021.3hPa Calm   1mph /  1.6km/h 96% 0in /  0.0mm 67 W/m2
09:39 42.8 °F /  6 °C 41.7 °F /  5.4 °C 30.2in /  1021.3hPa SW 0.9mph /  1.4km/h 1mph /  1.6km/h 96% 0in /  0.0mm 65 W/m2
09:44 43 °F /  6.1 °C 42.3 °F /  5.7 °C 30.2in /  1021.3hPa NNW 0.9mph /  1.4km/h 2mph /  3.2km/h 97% 0in /  0.0mm 60 W/m2
09:49 43 °F /  6.1 °C 42.3 °F /  5.7 °C 30.2in /  1021.3hPa NE 0.9mph /  1.4km/h 1mph /  1.6km/h 97% 0in /  0.0mm 63 W/m2
09:54 43 °F /  6.1 °C 42.3 °F /  5.7 °C 30.2in /  1021.3hPa Calm   1mph /  1.6km/h 97% 0in /  0.0mm 72 W/m2
09:59 43 °F /  6.1 °C 42.3 °F /  5.7 °C 30.2in /  1021.3hPa Calm   2mph /  3.2km/h 97% 0in /  0.0mm 62 W/m2
10:04 43 °F /  6.1 °C 42.3 °F /  5.7 °C 30.2in /  1021.3hPa Calm   3mph /  4.8km/h 97% 0in /  0.0mm 60 W/m2
10:09 42.8 °F /  6 °C 42.1 °F /  5.6 °C 30.2in /  1021.3hPa Calm   2mph /  3.2km/h 97% 0in /  0.0mm 69 W/m2
10:14 43 °F /  6.1 °C 42.3 °F /  5.7 °C 30.2in /  1021.3hPa Calm   1mph /  1.6km/h 97% 0in /  0.0mm 76 W/m2
10:19 43 °F /  6.1 °C 42.3 °F /  5.7 °C 30.2in /  1021.7hPa Calm     97% 0in /  0.0mm 90 W/m2
10:24 43 °F /  6.1 °C 42.3 °F /  5.7 °C 30.2in /  1021.3hPa Calm   1mph /  1.6km/h 97% 0in /  0.0mm 84 W/m2
10:29 43 °F /  6.1 °C 42.3 °F /  5.7 °C 30.2in /  1021.7hPa Calm   2mph /  3.2km/h 97% 0in /  0.0mm 95 W/m2
10:34 43.2 °F /  6.2 °C 42.4 °F /  5.8 °C 30.2in /  1021.3hPa Calm   1mph /  1.6km/h 97% 0in /  0.0mm 105 W/m2
10:39 43.2 °F /  6.2 °C 42.4 °F /  5.8 °C 30.2in /  1021.3hPa NE 2mph /  3.2km/h 3mph /  4.8km/h 97% 0in /  0.0mm 114 W/m2
10:44 43.2 °F /  6.2 °C 42.4 °F /  5.8 °C 30.2in /  1021.3hPa Calm   3mph /  4.8km/h 97% 0in /  0.0mm 142 W/m2
10:49 43.3 °F /  6.3 °C 42.6 °F /  5.9 °C 30.2in /  1021.3hPa Calm   1mph /  1.6km/h 97% 0in /  0.0mm 135 W/m2
10:54 43.5 °F /  6.4 °C 42.8 °F /  6 °C 30.2in /  1021.3hPa Calm   2mph /  3.2km/h 97% 0in /  0.0mm 149 W/m2
10:59 43.7 °F /  6.5 °C 43 °F /  6.1 °C 30.2in /  1021.3hPa NW 0.9mph /  1.4km/h 2mph /  3.2km/h 97% 0in /  0.0mm 146 W/m2
11:04 43.9 °F /  6.6 °C 43.2 °F /  6.2 °C 30.2in /  1021.3hPa Calm   1mph /  1.6km/h 97% 0in /  0.0mm 134 W/m2
11:09 44.1 °F /  6.7 °C 43.3 °F /  6.3 °C 30.2in /  1021.3hPa NNW 2mph /  3.2km/h 2mph /  3.2km/h 97% 0in /  0.0mm 137 W/m2
11:14 44.2 °F /  6.8 °C 43.5 °F /  6.4 °C 30.2in /  1021.3hPa Calm   3mph /  4.8km/h 97% 0in /  0.0mm 128 W/m2
11:19 44.1 °F /  6.7 °C 43.3 °F /  6.3 °C 30.2in /  1021.3hPa Calm   1mph /  1.6km/h 97% 0in /  0.0mm 153 W/m2
11:24 44.2 °F /  6.8 °C 43.5 °F /  6.4 °C 30.2in /  1021.3hPa Calm   3mph /  4.8km/h 97% 0in /  0.0mm 162 W/m2
11:29 44.2 °F /  6.8 °C 43.5 °F /  6.4 °C 30.2in /  1021.3hPa Calm   2mph /  3.2km/h 97% 0in /  0.0mm 160 W/m2
11:34 44.4 °F /  6.9 °C 43.7 °F /  6.5 °C 30.2in /  1021.3hPa ENE 0.9mph /  1.4km/h 2mph /  3.2km/h 97% 0in /  0.0mm 167 W/m2
11:39 44.6 °F /  7 °C 43.9 °F /  6.6 °C 30.2in /  1021.3hPa NNW 0.9mph /  1.4km/h 1mph /  1.6km/h 97% 0in /  0.0mm 148 W/m2
11:44 44.8 °F /  7.1 °C 44.1 °F /  6.7 °C 30.2in /  1021.3hPa Calm     97% 0in /  0.0mm 163 W/m2
11:49 45 °F /  7.2 °C 44.2 °F /  6.8 °C 30.2in /  1021.3hPa NW 0.9mph /  1.4km/h 3mph /  4.8km/h 97% 0in /  0.0mm 185 W/m2
11:54 45.1 °F /  7.3 °C 44.4 °F /  6.9 °C 30.2in /  1021.3hPa NW 2mph /  3.2km/h 2mph /  3.2km/h 97% 0in /  0.0mm 248 W/m2
11:59 45.3 °F /  7.4 °C 44.6 °F /  7 °C 30.2in /  1021.3hPa NW 0.9mph /  1.4km/h 3mph /  4.8km/h 97% 0in /  0.0mm 308 W/m2
12:04 45.7 °F /  7.6 °C 45 °F /  7.2 °C 30.2in /  1021.3hPa NNW 0.9mph /  1.4km/h 2mph /  3.2km/h 97% 0in /  0.0mm 274 W/m2
12:09 45.9 °F /  7.7 °C 45.1 °F /  7.3 °C 30.2in /  1021.3hPa WSW 0.9mph /  1.4km/h 3mph /  4.8km/h 97% 0in /  0.0mm 230 W/m2
12:14 46.2 °F /  7.9 °C 45.5 °F /  7.5 °C 30.2in /  1021.3hPa NW 0.9mph /  1.4km/h 2mph /  3.2km/h 97% 0in /  0.0mm 230 W/m2
12:19 46.8 °F /  8.2 °C 46 °F /  7.8 °C 30.2in /  1021.3hPa Calm   1mph /  1.6km/h 97% 0in /  0.0mm 213 W/m2
12:24 47.1 °F /  8.4 °C 46.4 °F /  8 °C 30.2in /  1021.3hPa East 2mph /  3.2km/h 2mph /  3.2km/h 97% 0in /  0.0mm 114 W/m2
12:29 47.7 °F /  8.7 °C 46.6 °F /  8.1 °C 30.2in /  1021.3hPa Calm   2mph /  3.2km/h 96% 0in /  0.0mm 134 W/m2
12:34 48 °F /  8.9 °C 46.9 °F /  8.3 °C 30.2in /  1021.3hPa WSW 4.9mph /  7.9km/h 7mph /  11.3km/h 96% 0in /  0.0mm 225 W/m2
12:39 48.4 °F /  9.1 °C 46.9 °F /  8.3 °C 30.2in /  1021.3hPa West 2mph /  3.2km/h 3mph /  4.8km/h 95% 0in /  0.0mm 188 W/m2
12:44 48.6 °F /  9.2 °C 46.9 °F /  8.3 °C 30.2in /  1021.3hPa West 0.9mph /  1.4km/h 3mph /  4.8km/h 94% 0in /  0.0mm 185 W/m2
12:49 48.7 °F /  9.3 °C 46.8 °F /  8.2 °C 30.2in /  1021.0hPa Calm     93% 0in /  0.0mm 309 W/m2
12:54 49.3 °F /  9.6 °C 47.3 °F /  8.5 °C 30.2in /  1021.0hPa WSW 0.9mph /  1.4km/h 3mph /  4.8km/h 93% 0in /  0.0mm 418 W/m2
12:59 49.6 °F /  9.8 °C 47.5 °F /  8.6 °C 30.2in /  1021.0hPa West 2mph /  3.2km/h 3mph /  4.8km/h 92% 0in /  0.0mm 519 W/m2
13:04 50.4 °F /  10.2 °C 47.8 °F /  8.8 °C 30.2in /  1021.0hPa North 2mph /  3.2km/h 3mph /  4.8km/h 91% 0in /  0.0mm 473 W/m2
13:09 50.7 °F /  10.4 °C 47.7 °F /  8.7 °C 30.2in /  1021.0hPa WSW 0.9mph /  1.4km/h 4mph /  6.4km/h 89% 0in /  0.0mm 123 W/m2
13:14 51.1 °F /  10.6 °C 47.7 °F /  8.7 °C 30.2in /  1021.0hPa West 2mph /  3.2km/h 3mph /  4.8km/h 88% 0in /  0.0mm 95 W/m2
13:19 51.1 °F /  10.6 °C 47.7 °F /  8.7 °C 30.1in /  1020.7hPa Calm   4mph /  6.4km/h 88% 0in /  0.0mm 93 W/m2
13:24 51.3 °F /  10.7 °C 47.5 °F /  8.6 °C 30.1in /  1020.7hPa East 2mph /  3.2km/h 3mph /  4.8km/h 87% 0in /  0.0mm 70 W/m2
13:29 51.4 °F /  10.8 °C 47.5 °F /  8.6 °C 30.1in /  1020.7hPa SW 0.9mph /  1.4km/h 2mph /  3.2km/h 86% 0in /  0.0mm 79 W/m2
13:34 51.4 °F /  10.8 °C 47.5 °F /  8.6 °C 30.1in /  1020.7hPa Calm   3mph /  4.8km/h 86% 0in /  0.0mm 311 W/m2
13:39 51.6 °F /  10.9 °C 47.3 °F /  8.5 °C 30.1in /  1020.7hPa WSW 0.9mph /  1.4km/h 2mph /  3.2km/h 85% 0in /  0.0mm 146 W/m2
13:44 52.2 °F /  11.2 °C 47.8 °F /  8.8 °C 30.1in /  1020.7hPa Calm   1mph /  1.6km/h 85% 0in /  0.0mm 95 W/m2
13:49 52.3 °F /  11.3 °C 47.7 °F /  8.7 °C 30.1in /  1020.3hPa East 0.9mph /  1.4km/h 2mph /  3.2km/h 84% 0in /  0.0mm 91 W/m2
13:54 52.7 °F /  11.5 °C 48.4 °F /  9.1 °C 30.1in /  1020.3hPa Calm   3mph /  4.8km/h 85% 0in /  0.0mm 123 W/m2
13:59 52.9 °F /  11.6 °C 47.8 °F /  8.8 °C 30.1in /  1020.3hPa NNW 0.9mph /  1.4km/h 2mph /  3.2km/h 83% 0in /  0.0mm 120 W/m2
14:04 53.2 °F /  11.8 °C 48.2 °F /  9 °C 30.1in /  1020.3hPa East 2mph /  3.2km/h 4mph /  6.4km/h 83% 0in /  0.0mm 91 W/m2
14:09 53.2 °F /  11.8 °C 47.8 °F /  8.8 °C 30.1in /  1020.0hPa East 0.9mph /  1.4km/h 3mph /  4.8km/h 82% 0in /  0.0mm 79 W/m2
14:14 53.4 °F /  11.9 °C 48 °F /  8.9 °C 30.1in /  1020.0hPa NNE 0.9mph /  1.4km/h 4mph /  6.4km/h 82% 0in /  0.0mm 93 W/m2
14:19 53.8 °F /  12.1 °C 48 °F /  8.9 °C 30.1in /  1020.0hPa Calm   1mph /  1.6km/h 81% 0in /  0.0mm 102 W/m2
14:24 54 °F /  12.2 °C 48 °F /  8.9 °C 30.1in /  1020.0hPa NNE 2mph /  3.2km/h 2mph /  3.2km/h 80% 0in /  0.0mm 105 W/m2
14:29 54 °F /  12.2 °C 48.2 °F /  9 °C 30.1in /  1020.0hPa Calm     81% 0in /  0.0mm 135 W/m2
14:34 54 °F /  12.2 °C 48.6 °F /  9.2 °C 30.1in /  1020.0hPa Calm     82% 0in /  0.0mm 172 W/m2
14:39 54.1 °F /  12.3 °C 48.4 °F /  9.1 °C 30.1in /  1020.0hPa NNE 0.9mph /  1.4km/h 1mph /  1.6km/h 81% 0in /  0.0mm 120 W/m2
14:44 54.1 °F /  12.3 °C 48 °F /  8.9 °C 30.1in /  1020.0hPa Calm   2mph /  3.2km/h 80% 0in /  0.0mm 167 W/m2
14:49 54.3 °F /  12.4 °C 48 °F /  8.9 °C 30.1in /  1020.0hPa NE 0.9mph /  1.4km/h 3mph /  4.8km/h 79% 0in /  0.0mm 172 W/m2
14:54 54.7 °F /  12.6 °C 48.4 °F /  9.1 °C 30.1in /  1020.0hPa NE 0.9mph /  1.4km/h 2mph /  3.2km/h 79% 0in /  0.0mm 151 W/m2
14:59 54.9 °F /  12.7 °C 48.2 °F /  9 °C 30.1in /  1019.6hPa Calm   3mph /  4.8km/h 78% 0in /  0.0mm 176 W/m2
15:04 55 °F /  12.8 °C 48.4 °F /  9.1 °C 30.1in /  1019.6hPa Calm   3mph /  4.8km/h 78% 0in /  0.0mm 176 W/m2
15:09 55.2 °F /  12.9 °C 48.2 °F /  9 °C 30.1in /  1019.6hPa NE 0.9mph /  1.4km/h 2mph /  3.2km/h 77% 0in /  0.0mm 185 W/m2
15:14 55.2 °F /  12.9 °C 47.8 °F /  8.8 °C 30.1in /  1019.6hPa Calm     76% 0in /  0.0mm 171 W/m2
15:19 55.6 °F /  13.1 °C 48.9 °F /  9.4 °C 30.1in /  1019.6hPa Calm   1mph /  1.6km/h 78% 0in /  0.0mm 171 W/m2
15:24 55.6 °F /  13.1 °C 48.2 °F /  9 °C 30.1in /  1019.6hPa ESE 2mph /  3.2km/h 4mph /  6.4km/h 76% 0in /  0.0mm 174 W/m2
15:29 55.8 °F /  13.2 °C 48.4 °F /  9.1 °C 30.1in /  1019.6hPa Calm   2mph /  3.2km/h 76% 0in /  0.0mm 128 W/m2
15:34 55.8 °F /  13.2 °C 48.4 °F /  9.1 °C 30.1in /  1019.6hPa East 2mph /  3.2km/h 2mph /  3.2km/h 76% 0in /  0.0mm 95 W/m2
15:39 55.6 °F /  13.1 °C 47.8 °F /  8.8 °C 30.1in /  1019.6hPa Calm   1mph /  1.6km/h 75% 0in /  0.0mm 84 W/m2
15:44 55.6 °F /  13.1 °C 48.6 °F /  9.2 °C 30.1in /  1019.6hPa NW 0.9mph /  1.4km/h 1mph /  1.6km/h 77% 0in /  0.0mm 84 W/m2
15:49 55.6 °F /  13.1 °C 48.9 °F /  9.4 °C 30.1in /  1019.6hPa NW 0.9mph /  1.4km/h 1mph /  1.6km/h 78% 0in /  0.0mm 98 W/m2
15:54 55.2 °F /  12.9 °C 47.8 °F /  8.8 °C 30.1in /  1019.6hPa NW 2mph /  3.2km/h 2mph /  3.2km/h 76% 0in /  0.0mm 100 W/m2
15:59 55.2 °F /  12.9 °C 48.2 °F /  9 °C 30.1in /  1019.6hPa Calm     77% 0in /  0.0mm 97 W/m2
16:04 55.2 °F /  12.9 °C 48.2 °F /  9 °C 30.1in /  1019.6hPa Calm   2mph /  3.2km/h 77% 0in /  0.0mm 93 W/m2
16:09 55.2 °F /  12.9 °C 48.2 °F /  9 °C 30.1in /  1019.6hPa West 2mph /  3.2km/h 3mph /  4.8km/h 77% 0in /  0.0mm 95 W/m2
16:14 55.2 °F /  12.9 °C 48.2 °F /  9 °C 30.1in /  1019.6hPa Calm   1mph /  1.6km/h 77% 0in /  0.0mm 100 W/m2
16:19 55.2 °F /  12.9 °C 48.6 °F /  9.2 °C 30.1in /  1019.6hPa Calm   3mph /  4.8km/h 78% 0in /  0.0mm 84 W/m2
16:24 55.2 °F /  12.9 °C 48.2 °F /  9 °C 30.1in /  1019.6hPa Calm   2mph /  3.2km/h 77% 0in /  0.0mm 76 W/m2
16:29 55.2 °F /  12.9 °C 48.6 °F /  9.2 °C 30.1in /  1019.6hPa West 0.9mph /  1.4km/h 1mph /  1.6km/h 78% 0in /  0.0mm 72 W/m2
16:34 55.2 °F /  12.9 °C 48.7 °F /  9.3 °C 30.1in /  1019.6hPa Calm   2mph /  3.2km/h 79% 0in /  0.0mm 65 W/m2
16:39 55.2 °F /  12.9 °C 49.1 °F /  9.5 °C 30.1in /  1019.6hPa Calm     80% 0in /  0.0mm 62 W/m2
16:44 55.2 °F /  12.9 °C 49.1 °F /  9.5 °C 30.1in /  1019.6hPa Calm     80% 0in /  0.0mm 72 W/m2
16:49 55.2 °F /  12.9 °C 49.8 °F /  9.9 °C 30.1in /  1019.6hPa Calm     82% 0in /  0.0mm 69 W/m2
16:54 55.2 °F /  12.9 °C 49.8 °F /  9.9 °C 30.1in /  1019.6hPa West 0.9mph /  1.4km/h 1mph /  1.6km/h 82% 0in /  0.0mm 65 W/m2
16:59 55.2 °F /  12.9 °C 50.2 °F /  10.1 °C 30.1in /  1019.6hPa Calm   1mph /  1.6km/h 83% 0in /  0.0mm 62 W/m2
17:04 55 °F /  12.8 °C 50 °F /  10 °C 30.1in /  1019.6hPa Calm     83% 0in /  0.0mm 58 W/m2
17:09 55 °F /  12.8 °C 49.6 °F /  9.8 °C 30.1in /  1019.6hPa Calm     82% 0in /  0.0mm 47 W/m2
17:14 55 °F /  12.8 °C 49.6 °F /  9.8 °C 30.1in /  1019.3hPa Calm     82% 0in /  0.0mm 42 W/m2
17:19 54.9 °F /  12.7 °C 49.8 °F /  9.9 °C 30.1in /  1019.3hPa Calm     83% 0in /  0.0mm 39 W/m2
17:24 54.7 °F /  12.6 °C 49.6 °F /  9.8 °C 30.1in /  1019.3hPa Calm     83% 0in /  0.0mm 40 W/m2
17:29 54.7 °F /  12.6 °C 50 °F /  10 °C 30.1in /  1019.3hPa Calm     84% 0in /  0.0mm 39 W/m2
17:34 54.3 °F /  12.4 °C 49.6 °F /  9.8 °C 30.1in /  1019.3hPa Calm   1mph /  1.6km/h 84% 0in /  0.0mm 33 W/m2
17:39 54.1 °F /  12.3 °C 49.1 °F /  9.5 °C 30.1in /  1019.3hPa Calm   1mph /  1.6km/h 83% 0in /  0.0mm 32 W/m2
17:44 53.8 °F /  12.1 °C 49.1 °F /  9.5 °C 30.1in /  1019.3hPa Calm     84% 0in /  0.0mm 42 W/m2
17:49 53.4 °F /  11.9 °C 48.7 °F /  9.3 °C 30.1in /  1019.3hPa Calm   1mph /  1.6km/h 84% 0in /  0.0mm 30 W/m2
17:54 53.2 °F /  11.8 °C 48.6 °F /  9.2 °C 30.1in /  1019.3hPa West 0.9mph /  1.4km/h 1mph /  1.6km/h 84% 0in /  0.0mm 28 W/m2
17:59 52.9 °F /  11.6 °C 48.2 °F /  9 °C 30.1in /  1019.3hPa Calm   2mph /  3.2km/h 84% 0in /  0.0mm 28 W/m2
18:05 52.5 °F /  11.4 °C 47.8 °F /  8.8 °C 30.1in /  1019.3hPa West 2mph /  3.2km/h   84% 0in /  0.0mm 28 W/m2
18:10 52.2 °F /  11.2 °C 47.8 °F /  8.8 °C 30.1in /  1019.3hPa West 0.9mph /  1.4km/h 2mph /  3.2km/h 85% 0in /  0.0mm 18 W/m2
18:15 51.6 °F /  10.9 °C 47.3 °F /  8.5 °C 30.1in /  1019.3hPa West 2mph /  3.2km/h 2mph /  3.2km/h 85% 0in /  0.0mm 14 W/m2
18:20 51.4 °F /  10.8 °C 47.5 °F /  8.6 °C 30.1in /  1019.3hPa West 0.9mph /  1.4km/h 2mph /  3.2km/h 86% 0in /  0.0mm 16 W/m2
18:25 51.3 °F /  10.7 °C 47.3 °F /  8.5 °C 30.1in /  1019.3hPa West 0.9mph /  1.4km/h 2mph /  3.2km/h 86% 0in /  0.0mm 14 W/m2
18:30 51.1 °F /  10.6 °C 47.3 °F /  8.5 °C 30.1in /  1019.3hPa Calm     87% 0in /  0.0mm 11 W/m2
18:35 50.9 °F /  10.5 °C 47.1 °F /  8.4 °C 30.1in /  1019.3hPa Calm   2mph /  3.2km/h 87% 0in /  0.0mm 7 W/m2
18:40 50.5 °F /  10.3 °C 46.8 °F /  8.2 °C 30.1in /  1019.3hPa Calm   1mph /  1.6km/h 87% 0in /  0.0mm 0 W/m2
18:45 50.4 °F /  10.2 °C 46.6 °F /  8.1 °C 30.1in /  1019.3hPa Calm     87% 0in /  0.0mm 0 W/m2
18:50 50.2 °F /  10.1 °C 46.8 °F /  8.2 °C 30.1in /  1019.3hPa Calm     88% 0in /  0.0mm 0 W/m2
18:55 50 °F /  10 °C 46.6 °F /  8.1 °C 30.1in /  1019.3hPa Calm     88% 0in /  0.0mm 0 W/m2
19:00 49.8 °F /  9.9 °C 46.8 °F /  8.2 °C 30.1in /  1019.6hPa Calm     89% 0in /  0.0mm 0 W/m2
19:05 49.8 °F /  9.9 °C 46.8 °F /  8.2 °C 30.1in /  1019.6hPa Calm   2mph /  3.2km/h 89% 0in /  0.0mm 0 W/m2
19:10 50 °F /  10 °C 47.1 °F /  8.4 °C 30.1in /  1019.6hPa West 0.9mph /  1.4km/h 4mph /  6.4km/h 90% 0in /  0.0mm 0 W/m2
19:15 50.5 °F /  10.3 °C 47.7 °F /  8.7 °C 30.1in /  1019.6hPa West 0.9mph /  1.4km/h 2mph /  3.2km/h 90% 0in /  0.0mm 0 W/m2
19:20 50.7 °F /  10.4 °C 47.8 °F /  8.8 °C 30.1in /  1019.6hPa West 2.9mph /  4.7km/h 4mph /  6.4km/h 90% 0in /  0.0mm 0 W/m2
19:25 51.1 °F /  10.6 °C 48 °F /  8.9 °C 30.1in /  1019.6hPa WNW 2mph /  3.2km/h 2mph /  3.2km/h 89% 0in /  0.0mm 0 W/m2
19:30 51.3 °F /  10.7 °C 48.2 °F /  9 °C 30.1in /  1019.6hPa West 2mph /  3.2km/h 3mph /  4.8km/h 89% 0in /  0.0mm 0 W/m2
19:35 51.6 °F /  10.9 °C 48.2 °F /  9 °C 30.1in /  1020.0hPa West 2mph /  3.2km/h 2mph /  3.2km/h 88% 0in /  0.0mm 0 W/m2
19:40 51.6 °F /  10.9 °C 48.2 °F /  9 °C 30.1in /  1020.0hPa West 2mph /  3.2km/h 3mph /  4.8km/h 88% 0in /  0.0mm 0 W/m2
19:45 51.8 °F /  11 °C 48.4 °F /  9.1 °C 30.1in /  1020.0hPa West 0.9mph /  1.4km/h 2mph /  3.2km/h 88% 0in /  0.0mm 0 W/m2
19:50 51.8 °F /  11 °C 48.4 °F /  9.1 °C 30.1in /  1020.0hPa West 2mph /  3.2km/h 3mph /  4.8km/h 88% 0in /  0.0mm 0 W/m2
19:55 51.8 °F /  11 °C 48.4 °F /  9.1 °C 30.1in /  1020.0hPa WSW 0.9mph /  1.4km/h 3mph /  4.8km/h 88% 0in /  0.0mm 0 W/m2
20:00 51.6 °F /  10.9 °C 48.2 °F /  9 °C 30.1in /  1020.0hPa WSW 2mph /  3.2km/h 3mph /  4.8km/h 88% 0in /  0.0mm 0 W/m2
20:05 51.6 °F /  10.9 °C 48.2 °F /  9 °C 30.1in /  1020.0hPa West 2.9mph /  4.7km/h 3mph /  4.8km/h 88% 0in /  0.0mm 0 W/m2
20:10 51.6 °F /  10.9 °C 48.2 °F /  9 °C 30.1in /  1020.0hPa West 0.9mph /  1.4km/h 2mph /  3.2km/h 88% 0in /  0.0mm 0 W/m2
20:15 51.6 °F /  10.9 °C 48.2 °F /  9 °C 30.1in /  1020.0hPa West 0.9mph /  1.4km/h 2mph /  3.2km/h 88% 0in /  0.0mm 0 W/m2
20:20 51.4 °F /  10.8 °C 48 °F /  8.9 °C 30.1in /  1020.0hPa West 0.9mph /  1.4km/h 2mph /  3.2km/h 88% 0in /  0.0mm 0 W/m2
20:25 51.4 °F /  10.8 °C 48 °F /  8.9 °C 30.1in /  1020.0hPa Calm   2mph /  3.2km/h 88% 0in /  0.0mm 0 W/m2
20:30 51.4 °F /  10.8 °C 48 °F /  8.9 °C 30.1in /  1020.0hPa Calm   1mph /  1.6km/h 88% 0in /  0.0mm 0 W/m2
20:35 51.4 °F /  10.8 °C 48 °F /  8.9 °C 30.1in /  1020.0hPa Calm     88% 0in /  0.0mm 0 W/m2
20:40 51.3 °F /  10.7 °C 47.8 °F /  8.8 °C 30.1in /  1019.6hPa West 2mph /  3.2km/h 2mph /  3.2km/h 88% 0in /  0.0mm 0 W/m2
20:45 51.1 °F /  10.6 °C 47.7 °F /  8.7 °C 30.1in /  1019.6hPa Calm   1mph /  1.6km/h 88% 0in /  0.0mm 0 W/m2
20:50 51.1 °F /  10.6 °C 47.7 °F /  8.7 °C 30.1in /  1019.6hPa Calm   1mph /  1.6km/h 88% 0in /  0.0mm 0 W/m2
20:55 50.7 °F /  10.4 °C 47.3 °F /  8.5 °C 30.1in /  1019.6hPa Calm   2mph /  3.2km/h 88% 0in /  0.0mm 0 W/m2
21:00 50.4 °F /  10.2 °C 46.9 °F /  8.3 °C 30.1in /  1019.6hPa Calm     88% 0in /  0.0mm 0 W/m2
21:05 50.2 °F /  10.1 °C 46.8 °F /  8.2 °C 30.1in /  1019.6hPa Calm   2mph /  3.2km/h 88% 0in /  0.0mm 0 W/m2
21:10 49.6 °F /  9.8 °C 46.2 °F /  7.9 °C 30.1in /  1019.6hPa Calm     88% 0in /  0.0mm 0 W/m2
21:15 49.5 °F /  9.7 °C 46.4 °F /  8 °C 30.1in /  1019.6hPa Calm     89% 0in /  0.0mm 0 W/m2
21:20 49.1 °F /  9.5 °C 46 °F /  7.8 °C 30.1in /  1019.6hPa Calm     89% 0in /  0.0mm 0 W/m2
21:25 48.7 °F /  9.3 °C 45.9 °F /  7.7 °C 30.1in /  1019.6hPa Calm     90% 0in /  0.0mm 0 W/m2
21:30 48.6 °F /  9.2 °C 45.7 °F /  7.6 °C 30.1in /  1019.6hPa Calm     90% 0in /  0.0mm 0 W/m2
21:35 48.4 °F /  9.1 °C 45.5 °F /  7.5 °C 30.1in /  1019.6hPa Calm     90% 0in /  0.0mm 0 W/m2
21:40 48.2 °F /  9 °C 45.7 °F /  7.6 °C 30.1in /  1019.6hPa Calm     91% 0in /  0.0mm 0 W/m2
21:45 47.8 °F /  8.8 °C 45.3 °F /  7.4 °C 30.1in /  1019.6hPa Calm     91% 0in /  0.0mm 0 W/m2
21:50 47.8 °F /  8.8 °C 45.3 °F /  7.4 °C 30.1in /  1019.6hPa Calm     91% 0in /  0.0mm 0 W/m2
21:55 47.7 °F /  8.7 °C 45.5 °F /  7.5 °C 30.1in /  1019.6hPa Calm     92% 0in /  0.0mm 0 W/m2
22:00 47.7 °F /  8.7 °C 45.5 °F /  7.5 °C 30.1in /  1019.6hPa Calm     92% 0in /  0.0mm 0 W/m2
22:05 47.7 °F /  8.7 °C 45.5 °F /  7.5 °C 30.1in /  1019.6hPa Calm     92% 0in /  0.0mm 0 W/m2
22:10 47.5 °F /  8.6 °C 45.5 °F /  7.5 °C 30.1in /  1019.6hPa Calm     93% 0in /  0.0mm 0 W/m2
22:15 47.5 °F /  8.6 °C 45.5 °F /  7.5 °C 30.1in /  1019.6hPa Calm     93% 0in /  0.0mm 0 W/m2
22:20 47.3 °F /  8.5 °C 45.3 °F /  7.4 °C 30.1in /  1019.6hPa Calm     93% 0in /  0.0mm 0 W/m2
22:25 47.3 °F /  8.5 °C 45.3 °F /  7.4 °C 30.1in /  1019.6hPa Calm     93% 0in /  0.0mm 0 W/m2
22:30 47.1 °F /  8.4 °C 45.1 °F /  7.3 °C 30.1in /  1019.6hPa Calm     93% 0in /  0.0mm 0 W/m2
22:35 46.9 °F /  8.3 °C 45 °F /  7.2 °C 30.1in /  1019.6hPa Calm     93% 0in /  0.0mm 0 W/m2
22:40 46.8 °F /  8.2 °C 44.8 °F /  7.1 °C 30.1in /  1019.6hPa Calm     93% 0in /  0.0mm 0 W/m2
22:45 46.8 °F /  8.2 °C 44.8 °F /  7.1 °C 30.1in /  1019.6hPa Calm     93% 0in /  0.0mm 0 W/m2
22:50 46.4 °F /  8 °C 44.4 °F /  6.9 °C 30.1in /  1019.6hPa Calm     93% 0in /  0.0mm 0 W/m2
22:55 46.2 °F /  7.9 °C 44.2 °F /  6.8 °C 30.1in /  1019.6hPa Calm     93% 0in /  0.0mm 0 W/m2
23:01 46 °F /  7.8 °C 44.1 °F /  6.7 °C 30.1in /  1019.6hPa Calm     93% 0in /  0.0mm 0 W/m2
23:06 45.9 °F /  7.7 °C 43.9 °F /  6.6 °C 30.1in /  1019.6hPa Calm     93% 0in /  0.0mm 0 W/m2
23:11 45.7 °F /  7.6 °C 44.1 °F /  6.7 °C 30.1in /  1019.6hPa Calm     94% 0in /  0.0mm 0 W/m2
23:16 45.7 °F /  7.6 °C 43.7 °F /  6.5 °C 30.1in /  1019.6hPa Calm     93% 0in /  0.0mm 0 W/m2
23:21 45.5 °F /  7.5 °C 43.9 °F /  6.6 °C 30.1in /  1019.6hPa Calm     94% 0in /  0.0mm 0 W/m2
23:26 45.3 °F /  7.4 °C 43.7 °F /  6.5 °C 30.1in /  1019.6hPa Calm     94% 0in /  0.0mm 0 W/m2
23:31 45.5 °F /  7.5 °C 43.9 °F /  6.6 °C 30.1in /  1020.0hPa Calm     94% 0in /  0.0mm 0 W/m2
23:36 45.7 °F /  7.6 °C 44.1 °F /  6.7 °C 30.1in /  1019.6hPa Calm     94% 0in /  0.0mm 0 W/m2
23:41 45.7 °F /  7.6 °C 44.4 °F /  6.9 °C 30.1in /  1019.6hPa Calm     95% 0in /  0.0mm 0 W/m2
23:46 45.7 °F /  7.6 °C 44.4 °F /  6.9 °C 30.1in /  1019.6hPa Calm     95% 0in /  0.0mm 0 W/m2
23:51 45.9 °F /  7.7 °C 44.4 °F /  6.9 °C 30.1in /  1019.6hPa Calm     95% 0in /  0.0mm 0 W/m2
23:56 45.9 °F /  7.7 °C 44.4 °F /  6.9 °C 30.1in /  1019.6hPa Calm     95% 0in /  0.0mm 0 W/m2
Juneau County Weather
Compliments of Weather Underground - 4 mb